Content
SEND FEEDBACK

Daily
Averages
Monthly
Summary
United States of America

BERKELEY, MISSOURI


Home > North America > United States > Missouri
Elevation: 564 feet     Latitude: 38 45N     Longitude: 090 22W

WEATHER
 
SELECT A DAY
Number of Records: 208,302;   Date Range: 1/1/95 - 12/19/14
 
SHARE

PRINT THIS DATA

[ ← Previous Day ]
WEATHER ALMANAC - SEPTEMBER 15, 2013
[ Next Day → ]
[ °C ]   °F
Weather ElementAverageHighLow
Temperature70.9 °F82 °F (4:51 pm)60.1 °F (4:51 am)
Dewpoint53.5 °F64.4 °F (11:25 pm)44.1 °F (1:51 am)
Humidity55.9 %84 % (11:51 pm)37 % (11:51 am)
Barometer30.04 in30.11 in (11:25 pm)29.98 in (4:51 pm)
Wind Speed7.4 mph12.7 mph (9:51 am)
Weather ElementAverage
Visibility10 mi
Wind DirectionWSW (230.8 °)

Weather ElementTotal
Precipitation0.01 in
Cooling Degree Days6.1 (Base 65)
Growing Degree Days21.1 (Base 50)
Averaged from 24 records on September 15, 2013
WEATHER CONDITIONS BREAKOUT
WIND DIRECTION BREAKOUT
WEATHER BY HOUR - SEPTEMBER 15, 2013
[ °C ]   °F
Local TimeTemperatureDewpointHumidityBarometerVisibilityWind DirectionWind SpeedGust SpeedPrecipitationEventsConditions
1:51 AM63.0 °F44.1 °F50 %30.03 in10.0 miSouth (170°)9.2 mphScattered Clouds
2:51 AM62.1 °F45.0 °F53 %30.03 in10.0 miSouth (190°)6.9 mphPartly Cloudy
3:51 AM62.1 °F45.0 °F53 %30.01 in10.0 miSouth (170°)10.4 mphPartly Cloudy
4:51 AM60.1 °F46.0 °F60 %30.03 in10.0 miSouth (180°)4.6 mphMostly Cloudy
5:51 AM61.0 °F46.0 °F58 %30.03 in10.0 miSSW (200°)5.8 mphMostly Cloudy
6:51 AM60.1 °F46.0 °F60 %30.04 in10.0 miSouth (180°)5.8 mphMostly Cloudy
7:51 AM62.1 °F46.9 °F58 %30.06 in10.0 miSSW (200°)5.8 mphMostly Cloudy
8:51 AM66.9 °F48.9 °F52 %30.05 in10.0 miSSW (210°)10.4 mphMostly Cloudy
9:51 AM71.1 °F48.0 °F44 %30.06 in10.0 miSSW (210°)12.7 mphMostly Cloudy
10:51 AM73.9 °F48.9 °F41 %30.04 in10.0 miSSW (200°)9.2 mphMostly Cloudy
11:51 AM78.1 °F50.0 °F37 %30.04 in10.0 miSW (220°)9.2 mphMostly Cloudy
12:51 PM79.0 °F51.1 °F38 %30.03 in10.0 miSW (220°)6.9 mphMostly Cloudy
1:51 PM79.0 °F53.1 °F40 %30.02 in10.0 miSouth (170°)6.9 mph0.00 inRainLight Rain
2:51 PM80.1 °F53.1 °F39 %30.00 in10.0 miSW (220°)9.2 mph0.00 inOvercast
4:51 PM82.0 °F55.0 °F39 %29.98 in10.0 miSSW (210°)8.1 mphMostly Cloudy
5:51 PM81.0 °F57.0 °F44 %29.98 in10.0 miSSW (200°)6.9 mphOvercast
6:51 PM79.0 °F57.9 °F48 %30.00 in10.0 miCalm0.00 inRainLight Rain
7:51 PM75.9 °F60.1 °F58 %30.02 in10.0 miNW (310°)8.1 mph0.00 inRainLight Rain
8:51 PM73.0 °F62.1 °F68 %30.05 in10.0 miNorth (350°)9.2 mph0.00 inMostly Cloudy
9:51 PM73.0 °F63.0 °F71 %30.06 in10.0 miNNW (330°)4.6 mphMostly Cloudy
10:51 PM70.0 °F64.0 °F81 %30.07 in10.0 miNNW (340°)6.9 mph0.01 inRainLight Rain
11:25 PM69.8 °F64.4 °F83 %30.11 in10.0 miNorth (350°)6.9 mph0.00 inMostly Cloudy
11:34 PM69.8 °F64.4 °F83 %30.11 in10.0 miNorth (360°)6.9 mph0.00 inMostly Cloudy
11:51 PM69.1 °F64.0 °F84 %30.09 in10.0 miNorth (350°)6.9 mph0.00 inMostly Cloudy
Hourly data recorded from KSTL, located miles away from Berkeley, Missouri







STORIES FROM OUR PARTNERS